Regional Weather Roundup
Issued by NWS Northern Indiana

Home | Current Version | Previous Version | Text Only | Print | Product List | Glossary Off
Versions: 1 2 3 4 5 6 7 8 9 10 11 12 13 14 15 16 17 18 19 20 21 22 23 24 25 26 27 28 29 30 31 32 33 34 35 36 37 38 39 40 41 42 43 44 45 46 47 48 49 50

000
ASUS43 KIWX 271700
RWRIWX

KIWX WEATHER ROUNDUP
NATIONAL WEATHER SERVICE NORTHERN INDIANA
100 PM EDT MON APR 27 2015

NOTE: "FAIR" INDICATES FEW OR NO CLOUDS BELOW 12,000 FEET WITH NO
SIGNIFICANT WEATHER AND/OR OBSTRUCTIONS TO VISIBILITY.

* THESE STATIONS ARE NOT UNDER NWS QUALITY CONTROL. THEY ALSO MAY NOT
  REPORT WEATHER SUCH AS PRECIPITATION OR FOG.

INZ001>027-271800-
NORTHERN INDIANA

CITY           SKY/WX    TMP DP  RH WIND       PRES   REMARKS
GARY*          MOSUNNY   50  32  50 N17G32    30.14R
SOUTH BEND     MOSUNNY   51  37  58 NW14G24   30.08S
GOSHEN         CLOUDY    52  38  58 N15       30.04R
ANGOLA*        CLOUDY    48  36  61 N7        30.03R
FORT WAYNE     PTSUNNY   53  37  54 N6G16     30.02S
PERU/GRISSOM   CLOUDY    54  37  53 NW16G24   30.03R

$$
INZ028>050-271800-
CENTRAL INDIANA

CITY           SKY/WX    TMP DP  RH WIND       PRES   REMARKS
LAFAYETTE      PTSUNNY   51  34  52 N17G28    30.06F
KOKOMO*        MOSUNNY   54  37  54 N17G23    30.03S
MUNCIE*        MOSUNNY   54  38  54 N13       30.01R
INDIANAPOLIS   MOSUNNY   56  38  50 NW14      30.03R

$$
MIZ043>046-050>051-056>058-064>065-071>073-077>080-271800-
SOUTHWEST LOWER MICHIGAN

CITY           SKY/WX    TMP DP  RH WIND       PRES   REMARKS
BATTLE CREEK   CLOUDY   N/A N/A N/A MISG      30.05S
BENTON HARBOR  SUNNY     44  37  76 NW10G18   30.10S
COLDWATER*     CLOUDY    47  35  62 NE8       30.04R
HILLSDALE*     CLOUDY    46  35  64 N7        30.03R
HOLLAND        CLOUDY    51  37  58 NW13      30.08R
GRAND RAPIDS   CLOUDY    49  33  54 NE8       30.06R
KALAMAZOO      CLOUDY    50  34  54 N6        30.06R
STURGIS*       CLOUDY    48  34  57 N5G16     30.04R
THREE RIVERS*  CLOUDY    50  35  55 N10       30.05S

$$
OHZ001>008-015>018-024>025-271800-
NORTHWEST OHIO

CITY           SKY/WX    TMP DP  RH WIND       PRES   REMARKS
DEFIANCE       CLOUDY    53  35  50 N12       30.02S
FINDLAY        CLOUDY    50  35  56 N12       30.00S
TOLEDO EXPRESS CLOUDY    46  35  65 N12       30.03R
TOLEDO METCALF CLOUDY    47  34  60 N9        30.03S
LIMA           CLOUDY    51  37  58 NW14      30.00R

$$
AND FOR LAKE MICHIGAN COASTAL AND OPEN LAKE BUOY OBSERVATIONS

STATION/POSITION TEMP    WIND        PRES    VSBY  WAVE
                 AIR SEA DIR/SP/G                  HT/PER
                 (F)     (DEG/KT/KT) (MB)    (MI)  (FT/S)
CALUMET HARBOR    45     340/ 16/ 20   N/A
MICHIGAN CITY     41     320/ 23/ 26   N/A
BURNS HARBOR      42     350/ 18/ 21 1020.7S
SAINT JOSEPH      42     320/ 16/ 19 1020.3R
MICHIGAN CITY     41 45  340/ 17/ 23   N/A           5/ 5

$$
&&


USA.gov is the U.S. government's official web portal to all federal, state and local government web resources and services.